• In Hungary
  • List of Countries
  • For 7 days
  • Water Temperature
  • Satellite Maps
  • Weather Map
  • News
  • Weather Widgets
  • user-avatar
    Login

    Hourly Weather Tihinichi

    Today, 25 September, Tuesday

    Time Temperature Precipitation Wind Pressure Humidity
    00:00 +6°C° 0 mm 5 mps 742 mmHg 90%
    01:00 +6°C° 0 mm 5 mps 743 mmHg 91%
    02:00 +6°C° 0 mm 5 mps 743 mmHg 91%
    03:00 +6°C° 0 mm 5 mps 744 mmHg 89%
    04:00 +6°C° 0 mm 5 mps 744 mmHg 87%
    05:00 +6°C° 0 mm 5 mps 745 mmHg 85%
    06:00 +5°C° 0 mm 6 mps 746 mmHg 84%
    07:00 +5°C° 0 mm 6 mps 746 mmHg 83%
    08:00 +5°C° 0 mm 6 mps 747 mmHg 82%
    09:00 +5°C° 0 mm 6 mps 748 mmHg 78%
    10:00 +7°C° 0 mm 6 mps 748 mmHg 74%
    11:00 +7°C° 0 mm 6 mps 749 mmHg 70%
    12:00 +8°C° 0.1 mm 6 mps 749 mmHg 65%
    13:00 +9°C° 0.1 mm 6 mps 750 mmHg 60%
    14:00 +9°C° 0.1 mm 6 mps 750 mmHg 55%
    15:00 +9°C° 0.1 mm 5 mps 750 mmHg 57%
    16:00 +8°C° 0.1 mm 5 mps 751 mmHg 59%
    17:00 +8°C° 0.1 mm 4 mps 751 mmHg 62%
    18:00 +7°C° 0 mm 4 mps 752 mmHg 65%
    19:00 +6°C° 0 mm 4 mps 753 mmHg 69%
    20:00 +5°C° 0 mm 4 mps 753 mmHg 73%
    21:00 +5°C° 0 mm 4 mps 754 mmHg 73%
    22:00 +4°C° 0 mm 4 mps 754 mmHg 74%
    23:00 +4°C° 0 mm 4 mps 755 mmHg 75%

    Tomorrow, 26 September, Wednesday

    Time Temperature Precipitation Wind Pressure Humidity
    00:00 +4°C° 0 mm 4 mps 756 mmHg 74%
    01:00 +3°C° 0 mm 4 mps 756 mmHg 74%
    02:00 +1°C° 0 mm 4 mps 757 mmHg 73%
    03:00 +1°C° 0 mm 4 mps 757 mmHg 74%
    04:00 +2°C° 0 mm 3 mps 758 mmHg 74%
    05:00 +1°C° 0 mm 3 mps 758 mmHg 75%
    06:00 +1°C° 0 mm 4 mps 759 mmHg 75%
    07:00 +3°C° 0 mm 4 mps 759 mmHg 75%
    08:00 +4°C° 0 mm 4 mps 760 mmHg 75%
    09:00 +6°C° 0 mm 4 mps 760 mmHg 68%
    10:00 +7°C° 0 mm 4 mps 760 mmHg 61%
    11:00 +10°C° 0 mm 4 mps 760 mmHg 53%
    12:00 +11°C° 0 mm 4 mps 759 mmHg 50%
    13:00 +12°C° 0 mm 4 mps 759 mmHg 46%
    14:00 +12°C° 0 mm 4 mps 758 mmHg 43%
    15:00 +11°C° 0 mm 4 mps 758 mmHg 46%
    16:00 +11°C° 0 mm 4 mps 758 mmHg 50%
    17:00 +10°C° 0 mm 3 mps 757 mmHg 54%
    18:00 +10°C° 0 mm 4 mps 757 mmHg 54%
    19:00 +8°C° 0 mm 4 mps 756 mmHg 55%
    20:00 +8°C° 0 mm 4 mps 756 mmHg 56%
    21:00 +8°C° 0.1 mm 5 mps 755 mmHg 60%
    22:00 +7°C° 0.1 mm 6 mps 755 mmHg 64%
    23:00 +7°C° 0.1 mm 6 mps 754 mmHg 68%

    Day after tomorrow, 27 September, Thursday

    Time Temperature Precipitation Wind Pressure Humidity
    00:00 +6°C° 0.1 mm 7 mps 753 mmHg 70%
    01:00 +6°C° 0.1 mm 7 mps 752 mmHg 72%
    02:00 +6°C° 0.1 mm 7 mps 752 mmHg 74%
    03:00 +6°C° 0.5 mm 8 mps 751 mmHg 78%
    04:00 +6°C° 0.5 mm 8 mps 750 mmHg 81%
    05:00 +6°C° 0.5 mm 8 mps 749 mmHg 84%
    06:00 +6°C° 0.4 mm 8 mps 749 mmHg 85%
    07:00 +6°C° 0.4 mm 7 mps 749 mmHg 87%
    08:00 +6°C° 0.4 mm 7 mps 749 mmHg 88%
    09:00 +8°C° 0.1 mm 7 mps 749 mmHg 88%
    10:00 +9°C° 0.1 mm 7 mps 749 mmHg 87%
    11:00 +9°C° 0.1 mm 7 mps 749 mmHg 86%
    12:00 +10°C° 0 mm 7 mps 749 mmHg 86%
    13:00 +10°C° 0 mm 7 mps 749 mmHg 85%
    14:00 +11°C° 0 mm 6 mps 749 mmHg 85%
    15:00 +11°C° 0.1 mm 6 mps 749 mmHg 85%
    16:00 +13°C° 0.1 mm 6 mps 749 mmHg 86%
    17:00 +13°C° 0.1 mm 5 mps 749 mmHg 87%
    18:00 +13°C° 0.1 mm 5 mps 749 mmHg 88%
    19:00 +13°C° 0.1 mm 5 mps 749 mmHg 90%
    20:00 +13°C° 0.1 mm 5 mps 750 mmHg 91%
    21:00 +12°C° 0.1 mm 4 mps 750 mmHg 92%
    22:00 +12°C° 0.1 mm 4 mps 750 mmHg 93%
    23:00 +12°C° 0.1 mm 4 mps 750 mmHg 94%

    28 September, Friday

    Time Temperature Precipitation Wind Pressure Humidity
    00:00 +12°C° 0 mm 4 mps 750 mmHg 95%
    01:00 +11°C° 0 mm 4 mps 749 mmHg 95%
    02:00 +11°C° 0 mm 4 mps 749 mmHg 95%
    03:00 +12°C° 0 mm 5 mps 749 mmHg 94%
    04:00 +12°C° 0 mm 5 mps 748 mmHg 93%
    05:00 +11°C° 0 mm 6 mps 748 mmHg 91%
    06:00 +13°C° 0 mm 6 mps 748 mmHg 90%
    07:00 +13°C° 0 mm 6 mps 747 mmHg 88%
    08:00 +12°C° 0 mm 7 mps 747 mmHg 87%
    09:00 +14°C° 0.1 mm 7 mps 746 mmHg 85%
    10:00 +14°C° 0.1 mm 7 mps 746 mmHg 83%
    11:00 +15°C° 0.1 mm 7 mps 746 mmHg 81%
    12:00 +14°C° 0.2 mm 7 mps 746 mmHg 82%
    13:00 +14°C° 0.2 mm 7 mps 746 mmHg 83%
    14:00 +14°C° 0.2 mm 7 mps 746 mmHg 84%
    15:00 +14°C° 0.1 mm 6 mps 746 mmHg 81%
    16:00 +14°C° 0.1 mm 5 mps 747 mmHg 77%
    17:00 +13°C° 0.1 mm 4 mps 747 mmHg 73%
    18:00 +11°C° 0 mm 4 mps 748 mmHg 77%
    19:00 +10°C° 0 mm 3 mps 749 mmHg 81%
    20:00 +8°C° 0 mm 2 mps 749 mmHg 85%
    21:00 +7°C° 0 mm 2 mps 750 mmHg 87%
    22:00 +6°C° 0 mm 2 mps 750 mmHg 88%
    23:00 +6°C° 0 mm 1 mps 750 mmHg 89%

    29 September, Saturday

    Time Temperature Precipitation Wind Pressure Humidity
    00:00 +6°C° 0 mm 1 mps 750 mmHg 90%
    01:00 +6°C° 0 mm 1 mps 751 mmHg 90%
    02:00 +5°C° 0 mm 1 mps 751 mmHg 90%
    03:00 +5°C° 0 mm 1 mps 751 mmHg 89%
    04:00 +5°C° 0 mm 1 mps 751 mmHg 88%
    05:00 +6°C° 0 mm 1 mps 751 mmHg 88%
    06:00 +6°C° 0 mm 1 mps 751 mmHg 84%
    07:00 +7°C° 0 mm 1 mps 751 mmHg 81%
    08:00 +8°C° 0 mm 1 mps 751 mmHg 78%
    09:00 +9°C° 0 mm 1 mps 751 mmHg 73%
    10:00 +10°C° 0 mm 1 mps 752 mmHg 68%
    11:00 +10°C° 0 mm 0 mps 752 mmHg 63%
    12:00 +12°C° 0 mm 1 mps 752 mmHg 60%
    13:00 +12°C° 0 mm 1 mps 752 mmHg 56%
    14:00 +13°C° 0 mm 2 mps 752 mmHg 53%
    15:00 +12°C° 0 mm 2 mps 752 mmHg 57%
    16:00 +12°C° 0 mm 2 mps 752 mmHg 60%
    17:00 +11°C° 0 mm 1 mps 753 mmHg 64%
    18:00 +9°C° 0 mm 2 mps 753 mmHg 69%
    19:00 +8°C° 0 mm 2 mps 753 mmHg 75%
    20:00 +6°C° 0 mm 2 mps 754 mmHg 80%
    21:00 +6°C° 0 mm 2 mps 754 mmHg 83%
    22:00 +5°C° 0 mm 2 mps 754 mmHg 86%
    23:00 +5°C° 0 mm 2 mps 755 mmHg 89%

    30 September, Sunday

    Time Temperature Precipitation Wind Pressure Humidity
    00:00 +4°C° 0 mm 2 mps 755 mmHg 90%
    01:00 +4°C° 0 mm 2 mps 755 mmHg 90%
    02:00 +4°C° 0 mm 2 mps 755 mmHg 91%
    03:00 +4°C° 0 mm 1 mps 755 mmHg 92%
    04:00 +4°C° 0 mm 1 mps 755 mmHg 93%
    05:00 +4°C° 0 mm 1 mps 755 mmHg 93%
    06:00 +5°C° 0 mm 1 mps 755 mmHg 89%
    07:00 +6°C° 0 mm 1 mps 755 mmHg 85%
    08:00 +7°C° 0 mm 1 mps 755 mmHg 81%
    09:00 +9°C° 0 mm 1 mps 755 mmHg 73%
    10:00 +10°C° 0 mm 1 mps 755 mmHg 65%
    11:00 +12°C° 0 mm 2 mps 755 mmHg 58%
    12:00 +13°C° 0 mm 2 mps 754 mmHg 55%
    13:00 +13°C° 0 mm 2 mps 753 mmHg 52%
    14:00 +14°C° 0 mm 2 mps 753 mmHg 49%
    15:00 +13°C° 0 mm 2 mps 753 mmHg 53%
    16:00 +12°C° 0 mm 2 mps 752 mmHg 56%
    17:00 +12°C° 0 mm 1 mps 752 mmHg 59%
    18:00 +10°C° 0 mm 2 mps 752 mmHg 62%
    19:00 +9°C° 0 mm 2 mps 752 mmHg 64%
    20:00 +8°C° 0 mm 2 mps 752 mmHg 66%
    21:00 +7°C° 0 mm 2 mps 751 mmHg 67%
    22:00 +7°C° 0 mm 3 mps 751 mmHg 68%
    23:00 +5°C° 0 mm 3 mps 751 mmHg 68%
    Show more